Weather observations for the past three days for
St. Mary's, St. Mary's Airport
| Date | Time (akdt) | Wind (mph) | Vis. (mi.) | Weather | Sky Cond. | Temperature (ºF) | Relative Humidity | Wind Chill (°F) | Heat Index (°F) | Pressure | Precipitation (in) | ||||||
|---|---|---|---|---|---|---|---|---|---|---|---|---|---|---|---|---|---|
| Air | Dwpt | 6 hour | altimeter (in) | sea level (mb) | 1 hr | 3 hr | 6 hr | ||||||||||
| Max. | Min. | ||||||||||||||||
| 04 | 14:56 | N 23 G 29 | 10.00 | Overcast and Breezy | OVC023 | 33.1 | 23 | 66% | 21 | 29.96 | 1015.6 | ||||||
| 04 | 13:56 | N 23 G 30 | 10.00 | Overcast and Breezy | OVC023 | 32 | 23 | 69% | 20 | 29.99 | 1016.4 | ||||||
| 04 | 12:56 | N 22 | 10.00 | Overcast and Breezy | OVC025 | 32 | 24.1 | 73% | 20 | 30 | 1016.9 | ||||||
| 04 | 11:56 | N 22 G 26 | 10.00 | Overcast and Breezy | OVC025 | 32 | 21.9 | 66% | 20 | 30.02 | 1017.6 | ||||||
| 04 | 10:56 | N 21 G 25 | 10.00 | Mostly Cloudy and Breezy | BKN025 | 32 | 21.9 | 66% | 21 | 30.03 | 1018.1 | ||||||
| 04 | 09:56 | N 15 | 10.00 | Mostly Cloudy | SCT016 BKN028 | 30.9 | 25 | 30.9 | 21.9 | 79% | 21 | 30.05 | 1018.6 | ||||
| 04 | 08:56 | N 13 | 10.00 | A Few Clouds | FEW022 | 28.9 | 23 | 78% | 19 | 30.06 | 1018.9 | ||||||
| 04 | 07:56 | N 10 | 10.00 | Overcast | OVC020 | 28 | 23 | 81% | 19 | 30.07 | 1019.4 | ||||||
| 04 | 06:56 | N 9 | 10.00 | Overcast | OVC018 | 27 | 24.1 | 89% | 19 | 30.08 | 1019.6 | ||||||
| 04 | 05:56 | NW 7 | 10.00 | Overcast | OVC020 | 25 | 25 | 100% | 18 | 30.09 | 1019.8 | ||||||
| 04 | 03:56 | NW 7 | 10.00 | Fair | CLR | 23 | 21.9 | 32 | 23 | 96% | 16 | 30.11 | 1020.5 | ||||
| 04 | 02:56 | NW 7 | 10.00 | Mostly Cloudy | BKN010 | 24.1 | 23 | 96% | 17 | 30.11 | 1020.7 | ||||||
| 04 | 01:56 | NW 7 | 10.00 | Partly Cloudy | SCT010 | 24.1 | 23 | 96% | 17 | 30.12 | 1021.0 | ||||||
| 04 | 00:56 | NW 9 | 10.00 | A Few Clouds | FEW010 | 26.1 | 25 | 96% | 18 | 30.13 | 1021.2 | ||||||
| 03 | 23:56 | NW 6 | 10.00 | Fair | CLR | 27 | 21.9 | 81% | 21 | 30.13 | 1021.1 | ||||||
| 03 | 22:56 | N 7 | 10.00 | Fair | CLR | 30 | 23 | 75% | 24 | 30.12 | 1020.9 | ||||||
| 03 | 21:56 | NW 8 | 10.00 | A Few Clouds | FEW025 | 30.9 | 23 | 33.1 | 30.9 | 72% | 24 | 30.12 | 1020.9 | ||||
| 03 | 20:56 | NW 13 | 10.00 | Overcast | OVC023 | 32 | 25 | 75% | 23 | 30.12 | 1021.1 | ||||||
| 03 | 19:56 | NW 10 | 10.00 | Overcast | OVC021 | 32 | 24.1 | 73% | 24 | 30.13 | 1021.2 | ||||||
| 03 | 18:56 | NW 9 | 10.00 | Overcast | OVC019 | 32 | 25 | 75% | 25 | 30.13 | 1021.2 | ||||||
| 03 | 17:56 | W 12 | 10.00 | Mostly Cloudy | BKN017 | 33.1 | 26.1 | 75% | 25 | 30.13 | 1021.3 | ||||||
| 03 | 16:56 | W 9 | 10.00 | Overcast | OVC021 | 33.1 | 26.1 | 75% | 26 | 30.14 | 1021.8 | ||||||
| 03 | 15:56 | W 10 | 10.00 | Overcast | OVC021 | 33.1 | 25 | 35.1 | 27 | 72% | 26 | 30.15 | 1022.0 | ||||
| 03 | 14:56 | W 7 | 10.00 | Overcast | OVC023 | 32 | 24.1 | 73% | 26 | 30.15 | 1021.9 | ||||||
| 03 | 13:56 | SW 7 | 10.00 | Overcast | OVC021 | 30.9 | 24.1 | 76% | 25 | 30.15 | 1022.0 | ||||||
| 03 | 12:56 | E 5 | 10.00 | Mostly Cloudy | BKN019 | 34 | 21.9 | 61% | 30 | 30.15 | 1022.1 | ||||||
| 03 | 11:56 | NW 7 | 10.00 | Overcast | OVC017 | 28.9 | 21.9 | 75% | 23 | 30.15 | 1022.2 | ||||||
| 03 | 10:56 | NW 5 | 10.00 | Overcast | OVC015 | 28 | 21 | 75% | 24 | 30.15 | 1022.2 | ||||||
| 03 | 09:56 | NW 3 | 10.00 | Overcast | OVC015 | 27 | 21 | 27 | 26.1 | 78% | 30.15 | 1022.0 | |||||
| 03 | 08:56 | NW 3 | 10.00 | Overcast | OVC015 | 27 | 21 | 78% | 30.14 | 1021.6 | |||||||
| 03 | 07:56 | N 7 | 10.00 | Overcast | OVC015 | 26.1 | 21 | 81% | 19 | 30.13 | 1021.3 | ||||||
| 03 | 06:56 | N 7 | 10.00 | Overcast | OVC015 | 26.1 | 21 | 81% | 19 | 30.12 | 1021.0 | ||||||
| 03 | 05:56 | NW 8 | 10.00 | Overcast | OVC015 | 26.1 | 21 | 81% | 18 | 30.11 | 1020.7 | ||||||
| 03 | 04:56 | NW 7 | 10.00 | Overcast | OVC013 | 26.1 | 21.9 | 84% | 19 | 30.1 | 1020.5 | ||||||
| 03 | 03:56 | NW 7 | 10.00 | Overcast | OVC013 | 26.1 | 21.9 | 26.1 | 25 | 84% | 19 | 30.1 | 1020.2 | ||||
| 03 | 02:56 | NW 7 | 10.00 | Overcast | OVC013 | 26.1 | 21.9 | 84% | 19 | 30.09 | 1019.9 | ||||||
| 03 | 01:56 | NW 9 | 10.00 | Overcast | OVC013 | 26.1 | 21.9 | 84% | 18 | 30.07 | 1019.3 | ||||||
| 03 | 00:56 | NW 10 | 10.00 | Overcast | OVC011 | 25 | 21.9 | 88% | 16 | 30.05 | 1018.6 | ||||||
| 02 | 23:56 | NW 14 | 10.00 | Overcast | OVC011 | 25 | 21.9 | 88% | 14 | 30.03 | 1017.8 | ||||||
| 02 | 22:56 | NW 13 | 10.00 | Overcast | OVC013 | 26.1 | 21 | 81% | 16 | 30 | 1017.0 | ||||||
| 02 | 21:56 | NW 13 | 10.00 | Overcast | OVC015 | 26.1 | 21.9 | 34 | 26.1 | 84% | 16 | 29.98 | 1016.2 | ||||
| 02 | 20:56 | NW 16 | 10.00 | Overcast | OVC015 | 27 | 21.9 | 81% | 16 | 29.96 | 1015.3 | ||||||
| 02 | 19:56 | W 13 | 10.00 | Overcast | OVC017 | 28 | 23 | 81% | 18 | 29.93 | 1014.7 | ||||||
| 02 | 18:56 | W 15 G 21 | 10.00 | Overcast | OVC017 | 28.9 | 23 | 78% | 18 | 29.9 | 1013.6 | ||||||
| 02 | 17:56 | W 16 | 10.00 | Overcast | OVC017 | 30 | 24.1 | 79% | 19 | 29.88 | 1012.8 | ||||||
| 02 | 16:56 | W 15 | 10.00 | Overcast | BKN015 OVC031 | 33.1 | 26.1 | 75% | 24 | 29.85 | 1011.8 | ||||||
| 02 | 15:56 | W 13 | 10.00 | Overcast | OVC012 | 33.1 | 28 | 34 | 30 | 82% | 25 | 29.82 | 1010.8 | 0.01 | |||
| 02 | 14:56 | W 14 | 7.00 | Light Snow | BKN010 OVC015 | 33.1 | 28.9 | 85% | 24 | 29.8 | 1010.0 | ||||||
| 02 | 13:56 | NW 8 | 10.00 | Unknown Precip | OVC013 | 33.1 | 28 | 82% | 27 | 29.77 | 1009.1 | ||||||
| 02 | 12:56 | NW 12 | 5.00 | Light Snow Fog/Mist | FEW006 BKN011 OVC016 | 32 | 30 | 92% | 24 | 29.74 | 1008.0 | 0.01 | |||||
| 02 | 11:56 | NW 13 | 1.75 | Light Snow Fog/Mist | BKN005 OVC010 | 30.9 | 30.9 | 100% | 22 | 29.7 | 1006.8 | 0.01 | |||||
| 02 | 10:56 | NW 10 | 4.00 | Light Snow Fog/Mist | BKN006 BKN011 OVC028 | 30.9 | 30.9 | 100% | 23 | 29.67 | 1005.5 | ||||||
| 02 | 09:56 | NW 12 | 1.50 | Light Snow Fog/Mist | OVC004 | 30.9 | 30.9 | 34 | 30 | 100% | 22 | 29.63 | 1004.1 | 0.01 | 0.07 | ||
| 02 | 08:56 | NW 12 | 2.00 | Light Snow Fog/Mist | BKN004 OVC024 | 30 | 30 | 100% | 21 | 29.59 | 1003.0 | 0.02 | |||||
| 02 | 07:56 | NW 8 | 4.00 | Light Snow Fog/Mist | OVC004 | 30.9 | 30.9 | 100% | 24 | 29.56 | 1001.8 | ||||||
| 02 | 06:56 | W 7 | 0.25 | Light Snow Fog | BKN004 OVC008 | 32 | 32 | 100% | 26 | 29.53 | 1000.7 | 0.01 | 0.04 | ||||
| 02 | 05:56 | SW 6 | 0.50 | Light Snow Fog | OVC006 | 32 | 32 | 100% | 27 | 29.5 | 999.8 | 0.01 | |||||
| 02 | 04:56 | SW 6 | 0.50 | Light Rain Fog | BKN004 OVC014 | 33.1 | 33.1 | 100% | 28 | 29.47 | 998.8 | 0.02 | |||||
| 02 | 03:56 | SW 8 | 0.50 | Light Rain Fog | BKN004 OVC014 | 34 | 34 | 41 | 34 | 100% | 28 | 29.45 | 997.9 | 0.01 | 0.03 | ||
| 02 | 02:56 | S 7 | 0.75 | Unknown Precip Fog/Mist | SCT006 OVC011 | 35.1 | 35.1 | 100% | 30 | 29.42 | 997.0 | 0.01 | |||||
| 02 | 01:56 | SW 5 | 2.00 | Unknown Precip Fog/Mist | FEW003 SCT021 OVC030 | 37 | 37 | 100% | 34 | 29.39 | 996.0 | ||||||
| 02 | 00:56 | SW 5 | 4.00 | Light Rain Fog/Mist | BKN010 OVC014 | 37.9 | 37.9 | 100% | 35 | 29.37 | 995.2 | 0.01 | |||||
| 01 | 23:56 | W 3 | 10.00 | Light Rain | SCT026 BKN037 OVC050 | 37.4 | 0 | 0% | 29.34 | 994.3 | |||||||
| 01 | 22:56 | SW 3 | 10.00 | Light Rain | SCT009 OVC013 | 39 | 39 | 100% | 29.32 | 993.5 | 0.01 | ||||||
| 01 | 21:56 | Calm | 10.00 | Light Rain | FEW036 OVC047 | 39.9 | 37 | 44.1 | 39.9 | 89% | 29.29 | 992.6 | |||||
| 01 | 20:56 | SW 5 | 10.00 | Overcast | BKN028 BKN034 OVC055 | 41 | 36 | 82% | 38 | 29.27 | 992.0 | ||||||
| 01 | 19:56 | Calm | 10.00 | Light Rain | FEW015 SCT030 OVC060 | 43 | 36 | 76% | 29.25 | 991.4 | |||||||
| 01 | 18:56 | E 5 | 10.00 | Light Rain | SCT032 OVC070 | 43 | 36 | 76% | 41 | 29.25 | 991.1 | ||||||
| 01 | 17:56 | SE 6 | 10.00 | Light Rain | OVC035 | 42.1 | 35.1 | 76% | 39 | 29.24 | 990.9 | ||||||
| 01 | 16:56 | Vrbl 6 | 10.00 | Light Rain | BKN017 OVC026 | 43 | 36 | 76% | 40 | 29.24 | 991.0 | ||||||
| 01 | 15:56 | E 7 | 10.00 | Light Rain | SCT017 OVC022 | 43 | 36 | 43 | 37.9 | 76% | 39 | 29.23 | 990.7 | ||||
| Date | Time (akdt) | Wind (mph) | Vis. (mi.) | Weather | Sky Cond. | Air | Dwpt | Max. | Min. | Relative Humidity | Wind Chill (°F) | Heat Index (°F) | altimeter (in) | sea level (mb) | 1 hr | 3 hr | 6 hr |
| 6 hour | |||||||||||||||||
| Temperature (ºF) | Pressure | Precipitation (in) | |||||||||||||||